User: anonymous   Login
Location: Valdosta
(30.8330°N, 83.2790°W)
Time: 05:32:59
(UTC-04:00)
Language:

Uribyol 2 - Orbit

View from above orbital plane
View from above orbital plane
View from above satellite
View from above satellite

Ground track
Ground track

The orbit data is extracted from the following two-line orbital elements,

1 22828U 93061F   14296.42190702  .00000298  00000-0  13187-3 0  7437
2 22828 098.6633 241.3578 0008991 241.0485 118.9796 14.30364734 67571
Epoch (UTC): 23 October 2014 10:07:32
Eccentricity: 0.0008991
inclination: 98.6633°
perigee height: 784 km
apogee height: 797 km
right ascension of ascending node: 241.3578°
argument of perigee: 241.0485°
revolutions per day: 14.30364734
mean anomaly at epoch: 118.9796°
orbit number at epoch: 6757

The dashed part of the orbit path shows where the satellite is in the earth's shadow,  

DLR